Retour au catalogue

METEOR 2-17 DEB

ActifPO
NORAD 29066·DEBRIS·🇷🇺 Russia

Lancé Jan 30, 1988 depuis Plesetsk Cosmodrome

Loading…

Prochains Passages (prochaines 24 heures)

TLE

VieillissantSource: Space-Track

Époque: Sep 11, 2026, 03:26 UTC

1 29066U 88005L   26254.14346844  .00001303  00000-0  78184-3 0  9995
2 29066  82.5473 175.0412 0030393 287.4770  72.3081 14.06091437632307

Suivez METEOR 2-17 DEB en temps réel avec AllMySat

Download on the App Store